GEFSSE_con_cape1000_096.txt.gz
Probability
97 100 100 100 100 100 100 100 100 100 100 100 100 100 100 100 100 100 100 100 100 100 100 100 100 100 100 100 100 100 100 100 100 100 100 100 97 97 100 100 100 97 100
97 100 100 100 100 100 100 100 100 100 100 100 100 100 100 100 100 100 100 100 100 100 100 100 100 100 100 100 100 100 100 100 100 100 100 100 97 100 100 100 100 94 97
100 100 100 100 100 100 100 100 100 100 100 100 100 100 100 100 100 100 100 100 100 100 100 100 100 100 100 100 100 100 100 100 100 100 100 90 90 97 100 100 100 97 97
100 100 100 100 100 100 100 100 100 100 100 100 100 100 100 100 100 100 100 100 100 100 97 97 97 100 100 100 97 94 94 94 100 100 100 87 71 94 97 100 100 97 97
100 100 100 100 100 100 100 100 100 100 100 100 100 100 100 100 100 100 100 100 100 100 97 97 100 100 100 100 97 94 90 97 97 100 97 87 90 97 97 100 97 100 100
100 100 100 100 100 100 100 100 100 100 100 100 100 100 100 100 100 100 100 100 100 100 100 100 100 100 97 97 90 90 90 97 100 90 90 94 94 100 94 94 90 90 90
100 100 100 100 100 100 100 100 100 100 100 100 100 100 100 100 100 100 100 100 100 100 100 100 97 97 94 94 90 87 94 94 90 84 90 90 97 100 100 94 94 90 90
100 100 100 100 100 100 100 100 100 100 100 100 100 100 100 100 100 100 100 100 100 100 97 100 97 94 90 90 84 77 84 84 84 71 81 94 100 100 100 100 97 94 94
100 100 100 100 100 100 100 100 100 100 100 100 100 100 100 100 100 100 100 100 100 100 97 87 90 84 84 81 71 71 77 84 68 61 84 94 100 100 100 100 94 90 90
100 100 100 100 100 100 100 100 100 100 100 100 100 100 100 100 100 100 100 100 100 97 90 87 84 74 74 74 74 71 77 77 35 39 61 90 100 100 100 100 100 100 90
97 100 94 94 100 100 100 97 97 100 100 100 100 100 100 100 97 94 97 97 94 97 84 84 81 77 74 71 74 81 81 32 26 55 65 97 100 100 97 97 97 90 87
87 87 90 94 94 94 90 97 97 97 97 97 100 100 97 94 94 90 94 94 94 90 90 77 87 81 65 52 65 77 42 29 19 39 68 100 97 94 90 90 87 90 87
90 90 90 87 90 90 94 90 94 94 97 97 94 94 97 94 90 90 84 87 87 87 77 84 77 55 48 48 55 45 32 19 32 26 71 97 94 90 87 81 81 90 87
90 87 87 87 84 84 87 94 81 81 84 87 90 90 90 87 84 84 84 68 74 61 81 81 74 55 48 45 55 42 32 29 48 42 58 84 84 84 84 77 81 81 81
81 87 84 81 84 84 87 87 84 84 84 84 81 81 81 81 84 77 71 61 68 68 68 74 77 61 48 48 29 32 35 29 32 32 45 71 68 71 68 61 68 77 77
74 74 81 74 74 84 81 84 87 87 84 71 68 71 65 68 68 81 71 74 71 68 55 61 74 74 65 68 45 42 39 39 55 35 29 61 58 52 52 58 52 58 55
68 77 74 74 74 77 77 74 74 81 68 55 55 52 52 45 55 55 65 74 71 74 74 74 71 71 61 68 55 58 48 39 29 42 35 32 29 42 35 39 39 35 35
65 74 71 74 77 74 77 74 71 65 58 48 48 39 29 39 45 55 52 55 65 68 71 77 71 61 61 55 55 55 39 32 16 26 19 23 16 13 13 16 16 19 23
55 61 61 74 74 68 58 55 55 52 39 42 42 29 29 32 32 45 45 42 48 55 61 48 61 55 45 35 29 29 23 26 19 13 19 19 16 16 10 10 10 10 10
55 55 55 58 61 48 45 48 39 39 32 32 29 23 23 23 23 29 35 35 39 35 39 42 45 45 35 26 6 10 16 19 19 16 13 13 10 6 3 6 3 0 3
52 52 48 45 39 39 52 48 35 26 26 23 26 19 19 16 13 16 23 29 29 26 23 26 29 16 26 13 13 6 10 10 13 13 3 3 3 3 0 3 3 3 3
35 35 39 42 39 35 39 39 39 26 26 19 16 16 16 13 13 16 16 19 19 19 19 16 16 16 6 6 10 6 3 0 3 0 3 3 3 0 0 0 3 3 0
26 23 29 29 29 32 35 35 32 26 16 13 6 6 6 6 6 10 6 6 13 10 10 3 0 3 3 0 0 0 0 0 0 0 3 3 3 3 0 0 0 0 0
26 26 29 26 26 26 32 35 29 26 10 6 3 3 3 3 6 6 6 6 6 6 3 3 0 0 0 0 0 0 0 0 0 0 0 0 0 0 0 0 0 0 0
19 19 19 19 19 19 19 23 23 10 10 3 3 3 0 0 0 0 6 3 3 3 3 0 0 0 0 0 0 0 0 0 0 0 0 0 0 0 0 0 0 0 0
16 16 13 13 16 16 16 10 6 6 6 3 3 0 0 0 0 0 0 0 0 0 0 0 0 0 0 0 0 0 0 0 0 0 0 0 0 0 0 0 0 0 0

GEFSSE_con_cape1000_102.txt.gz
Probability
90 100 100 100 100 100 100 100 100 100 100 100 100 100 100 100 100 100 100 100 100 100 100 100 100 100 100 100 100 100 100 100 100 100 100 100 100 100 100 100 100 100 100
90 100 100 100 100 100 100 100 100 100 100 100 100 100 100 100 100 100 100 100 100 100 100 100 100 100 100 100 100 100 100 100 100 100 100 100 100 100 100 100 97 100 100
97 100 100 100 100 100 100 100 100 100 100 100 100 100 100 100 100 100 100 100 100 100 100 100 100 100 100 100 100 100 100 100 100 100 100 94 100 100 100 100 100 100 100
94 100 100 100 100 100 100 100 100 100 100 100 100 100 100 100 100 100 100 100 100 100 100 100 100 100 100 100 100 100 100 100 100 100 48 77 100 100 100 100 100 100 97
94 100 100 100 100 100 100 100 100 100 100 100 100 100 100 100 100 100 100 100 100 100 100 100 100 97 97 100 97 97 97 97 97 94 42 42 90 100 100 100 100 94 97
97 100 100 100 100 100 100 100 100 100 100 100 100 100 100 100 100 100 100 100 100 97 100 100 100 97 94 97 97 100 100 100 97 71 42 45 90 100 100 100 100 100 97
100 100 100 100 100 100 100 100 100 100 100 100 100 100 100 100 100 100 100 100 100 100 100 100 100 97 97 94 100 97 97 94 68 55 45 42 87 100 100 100 97 94 90
97 100 100 100 100 100 100 100 100 100 100 100 100 100 100 100 100 100 100 100 100 100 100 100 100 100 97 90 90 94 87 87 61 65 39 39 94 100 100 100 97 94 94
97 97 94 97 100 100 100 100 100 100 100 100 100 100 100 100 100 100 100 100 100 100 100 100 100 97 94 94 81 77 77 94 16 13 45 32 94 97 100 100 97 97 94
90 94 94 90 90 97 97 100 100 100 100 100 100 100 100 100 100 100 100 100 100 100 100 100 100 94 87 81 77 77 81 65 10 10 16 39 90 97 100 100 97 97 97
87 87 87 87 87 90 94 97 97 97 100 100 100 100 100 97 97 97 97 97 97 97 94 94 94 90 84 74 77 81 71 13 0 3 6 68 97 100 100 100 100 97 94
84 84 84 87 87 90 90 87 90 94 94 94 94 97 94 94 87 90 97 97 97 94 94 87 84 84 81 45 48 74 29 10 3 3 16 90 97 97 97 100 97 94 90
71 71 71 77 84 84 84 87 87 84 84 84 84 84 81 77 81 81 81 90 87 84 77 74 74 68 52 35 16 10 13 3 0 0 16 94 94 94 87 87 84 87 81
58 45 58 68 68 74 77 81 81 77 77 74 71 77 71 45 42 39 52 65 58 45 45 35 35 32 29 10 3 0 0 0 0 0 19 84 84 81 77 81 81 77 77
42 39 42 45 45 52 55 71 74 65 68 65 65 58 42 32 26 23 26 16 29 23 16 16 16 19 6 3 3 0 0 0 0 3 19 71 71 74 71 68 71 65 68
32 26 29 35 35 45 45 48 35 45 35 32 32 39 32 26 19 16 13 3 3 3 6 6 10 10 3 3 3 0 0 0 0 0 13 35 45 55 55 55 58 55 52
26 32 32 32 29 29 32 26 26 19 19 13 23 23 16 10 10 10 10 3 3 3 3 3 3 3 3 3 0 0 0 0 0 0 0 6 13 32 45 39 35 35 32
23 26 23 32 26 23 13 13 16 13 10 3 10 13 13 10 10 6 6 6 3 3 3 0 0 0 0 0 0 0 0 0 3 3 0 3 0 0 13 19 19 16 23
29 19 19 19 16 19 10 10 13 13 13 6 3 10 10 10 6 6 6 6 6 3 3 3 0 0 0 0 0 0 0 0 0 3 3 0 0 0 0 3 3 6 6
16 10 6 16 10 10 6 6 6 6 6 6 3 10 10 10 6 6 6 3 3 3 0 0 0 0 0 0 3 0 0 0 0 0 0 0 0 0 0 0 0 0 3
19 16 10 6 6 3 0 0 6 6 6 6 0 3 3 6 6 6 6 3 3 0 0 0 0 0 0 0 0 0 0 0 0 0 0 0 0 0 0 0 0 0 0
23 13 13 6 6 0 0 0 3 6 6 3 0 3 3 3 6 6 3 3 3 3 0 0 0 0 0 0 0 0 0 0 0 0 0 0 0 0 0 0 0 0 0
13 10 13 6 6 6 3 3 3 6 6 3 3 3 3 3 3 3 3 3 3 3 3 0 0 0 0 0 0 0 0 0 0 0 0 0 0 0 0 0 0 0 0
10 10 3 3 3 6 6 3 6 6 6 3 3 3 3 3 0 0 0 0 3 0 0 0 0 0 0 0 0 0 0 0 0 0 0 0 0 0 0 0 0 0 0
6 3 0 3 3 3 6 3 3 3 3 3 3 3 3 0 0 0 0 0 0 0 0 0 0 0 0 0 0 0 0 0 0 0 0 0 0 0 0 0 0 0 0
3 3 0 3 3 3 3 0 3 3 3 0 0 0 0 0 0 0 0 0 0 0 0 0 0 0 0 0 0 0 0 0 0 0 0 0 0 0 0 0 0 0 0

GEFSSE_con_cape1000_108.txt.gz
Probability
81 97 100 100 100 100 100 100 100 97 97 97 100 100 100 100 100 100 100 100 100 100 100 100 100 100 100 100 100 100 100 100 100 100 100 100 100 100 100 100 97 94 100
87 100 100 100 100 100 100 100 100 100 100 100 100 100 100 100 100 100 100 100 100 100 100 100 100 100 100 100 100 100 100 100 100 100 100 100 100 100 100 100 97 100 100
94 100 100 100 100 100 100 100 100 100 100 100 100 100 100 100 100 100 100 100 100 100 100 100 100 100 100 100 100 100 100 100 100 100 100 100 100 100 97 100 100 100 100
97 100 100 100 100 100 100 100 100 100 100 100 100 100 100 100 100 100 100 100 100 100 100 100 100 100 100 100 100 100 100 100 100 100 97 100 100 100 100 97 97 100 100
100 100 100 100 100 100 100 100 100 100 100 100 100 100 100 100 100 100 100 100 100 100 100 100 100 100 100 100 100 100 100 100 100 87 87 87 100 100 100 100 97 97 97
97 100 100 100 100 100 100 100 100 100 100 100 100 100 100 100 100 100 100 100 100 100 100 100 100 100 100 100 100 100 100 100 97 48 71 87 100 100 100 100 94 94 97
97 97 97 100 100 100 100 100 100 100 100 100 100 100 100 100 100 100 100 100 100 100 100 100 100 100 100 100 100 100 100 100 48 48 68 84 100 100 100 97 97 94 87
94 90 94 97 97 100 100 100 100 100 100 100 100 100 100 100 100 100 100 100 100 100 100 100 100 100 100 100 97 100 100 97 65 52 55 74 90 100 97 97 94 94 87
90 90 90 90 90 94 100 100 100 100 100 100 100 100 100 100 100 100 100 100 100 100 100 100 100 100 100 97 97 94 94 90 26 45 39 55 90 100 97 97 94 94 94
87 87 84 84 84 87 94 94 97 100 100 100 100 100 100 100 100 100 100 100 100 100 100 100 100 100 97 87 87 90 90 58 13 13 39 52 94 100 94 97 94 94 90
87 87 87 84 84 84 81 84 90 94 97 100 100 100 97 97 97 97 100 100 100 100 100 100 97 94 87 84 87 87 77 16 10 19 26 52 94 97 94 100 97 90 90
87 84 77 77 77 77 74 77 77 77 87 90 90 94 97 97 97 97 97 97 97 97 94 90 90 87 71 61 61 65 26 13 16 19 35 71 90 97 97 94 87 84 84
74 71 74 77 71 71 77 77 81 81 81 81 84 84 81 77 77 84 77 90 94 90 81 84 84 77 58 42 29 23 16 3 10 10 26 68 94 97 90 90 84 87 87
71 71 68 65 71 71 68 68 71 77 74 71 71 71 61 61 58 55 61 68 61 65 65 61 58 45 39 26 23 13 10 6 13 10 16 45 77 81 84 74 81 81 81
61 55 48 52 61 61 65 65 65 58 55 58 58 65 55 55 55 42 45 42 39 39 35 29 29 23 23 19 16 10 0 3 6 10 16 32 65 68 68 71 74 74 68
45 45 48 52 48 48 52 48 45 42 35 39 35 39 45 32 32 23 19 29 26 13 13 13 13 16 6 13 3 3 3 3 3 3 13 29 55 71 58 61 61 58 52
42 39 42 39 45 39 32 32 29 23 23 23 29 32 26 23 19 16 10 10 16 10 3 3 3 3 3 3 3 3 3 3 3 3 0 13 29 48 52 42 39 35 23
35 32 26 32 32 29 23 23 16 16 16 13 10 10 13 16 16 13 10 6 6 3 3 3 3 3 3 3 3 3 3 3 3 0 3 3 3 6 23 29 23 23 19
29 26 16 16 19 19 16 13 6 10 6 6 10 10 10 10 10 10 10 10 3 3 3 3 3 3 3 3 0 0 0 0 0 0 0 0 3 3 3 10 6 10 10
26 13 10 10 16 10 10 10 10 6 3 3 3 6 10 10 10 10 6 6 0 3 3 3 3 0 0 0 0 0 0 0 0 0 0 0 0 0 0 0 0 0 0
10 13 6 6 6 10 10 10 6 6 3 3 3 0 3 6 10 10 6 6 0 0 3 3 3 0 0 0 0 0 0 0 0 0 0 0 0 0 0 0 0 0 0
0 3 10 6 3 3 3 3 3 3 3 3 3 0 0 3 3 3 3 3 0 0 0 0 0 0 0 0 0 0 0 0 0 0 0 0 0 0 0 0 0 0 0
0 3 3 3 3 3 0 0 0 0 0 3 3 0 0 0 0 6 0 0 0 0 0 0 0 0 0 0 0 0 0 0 0 0 0 0 0 0 0 0 0 0 0
6 3 0 0 3 3 0 0 0 0 0 3 3 3 0 0 0 0 0 0 0 0 0 0 0 0 0 0 0 0 0 0 0 0 0 0 0 0 0 0 0 0 0
3 0 0 0 3 3 0 0 0 3 3 3 0 3 0 0 0 0 0 0 0 0 0 0 0 0 0 0 0 0 0 0 0 0 0 0 0 0 0 0 0 0 0
0 0 0 0 0 3 3 3 0 0 0 3 3 0 0 0 0 0 0 0 0 0 0 0 0 0 0 0 0 0 0 0 0 0 0 0 0 0 0 0 0 0 0

GEFSSE_con_cape1000_114.txt.gz
Probability
68 81 100 100 100 100 100 100 100 100 100 100 100 100 100 100 100 100 100 100 100 100 100 100 100 100 100 100 100 100 100 100 100 100 100 97 97 97 97 97 97 84 97
81 84 100 100 100 100 100 100 100 100 100 100 100 100 100 100 100 100 100 100 100 100 100 100 100 100 100 100 100 100 100 100 100 100 100 97 97 94 94 77 97 97 97
90 97 97 100 100 100 100 100 100 100 100 100 100 100 100 100 100 100 100 100 100 100 100 100 100 100 100 100 100 100 100 100 100 100 100 74 84 97 97 81 100 100 97
87 97 87 100 100 100 100 100 100 100 100 100 100 100 100 100 100 100 100 100 100 100 100 100 100 100 100 100 100 100 100 100 100 100 74 55 65 84 90 97 100 100 100
90 94 100 100 100 100 100 100 100 100 100 100 100 100 100 100 100 100 100 100 100 100 100 100 100 100 100 100 100 100 100 100 97 97 45 58 77 97 90 97 100 90 97
90 90 100 100 100 100 100 100 100 100 100 100 100 100 100 100 100 100 100 100 100 100 100 100 100 100 100 100 100 100 100 100 87 32 39 55 77 94 90 90 90 81 90
90 87 97 97 97 100 100 100 100 100 100 100 100 100 100 100 100 100 100 100 100 100 100 100 100 100 100 100 100 100 100 97 77 23 29 39 77 97 94 87 84 84 84
94 94 94 97 97 97 97 100 100 100 100 100 100 100 100 100 100 100 100 100 100 100 100 100 100 100 100 100 100 100 100 100 61 23 35 52 100 100 87 84 90 87 84
84 90 90 90 94 94 94 97 100 100 100 100 100 100 100 100 100 100 100 100 100 100 100 100 100 97 97 97 100 100 100 94 74 48 32 58 97 100 94 97 94 94 87
81 87 87 87 90 90 87 94 94 94 97 100 100 100 100 100 100 100 100 100 100 100 100 97 97 94 94 90 94 94 94 77 65 39 52 90 97 97 94 90 90 94 84
81 87 87 87 87 90 90 87 94 94 97 97 100 100 100 97 87 100 84 100 100 100 100 97 97 97 90 81 87 90 71 61 29 48 65 97 97 100 94 94 94 90 81
87 90 87 87 87 84 81 84 90 90 94 90 97 97 94 90 90 81 90 94 94 94 94 94 94 87 74 77 74 74 58 48 29 48 71 84 84 94 94 94 90 87 84
84 87 90 87 84 84 84 84 81 84 90 84 81 90 94 90 84 81 90 87 94 94 81 87 87 74 55 55 65 52 39 26 35 39 71 84 87 97 90 90 87 81 74
81 81 84 84 90 84 81 74 71 71 71 68 71 74 84 81 77 77 84 84 81 84 81 81 84 77 74 55 58 48 45 39 32 42 87 74 81 84 77 74 71 77 77
74 74 84 87 87 87 77 74 68 68 58 61 68 68 68 68 65 68 84 81 77 81 74 81 77 74 65 45 48 39 48 48 55 45 55 58 58 71 68 71 68 68 74
68 68 77 84 87 84 81 77 68 61 58 52 61 71 71 68 65 61 68 77 81 81 71 74 68 68 61 61 45 48 45 48 42 52 48 52 52 68 68 68 61 55 55
61 61 71 68 74 68 68 68 55 52 48 52 52 55 58 61 58 55 55 65 71 71 77 68 48 61 61 52 58 48 42 48 42 52 45 42 39 42 55 58 52 39 45
55 61 61 58 68 68 61 55 52 55 52 48 45 42 48 45 48 58 58 52 45 45 52 71 65 58 48 52 45 39 32 45 35 32 35 32 42 35 39 42 39 32 26
48 55 55 52 58 55 58 52 52 52 48 39 35 32 39 39 35 35 39 42 42 35 42 26 39 48 45 45 23 29 23 29 29 19 26 29 29 35 26 26 23 23 19
45 48 48 48 45 45 55 58 55 45 42 29 26 39 32 29 23 26 19 19 19 26 26 29 42 39 35 26 3 3 13 16 16 6 13 10 10 16 19 16 10 10 6
42 45 42 42 42 39 45 48 52 48 42 32 23 23 23 23 19 19 16 23 16 23 26 23 19 19 19 13 3 3 0 0 0 0 3 3 3 3 6 6 10 6 3
19 26 29 35 32 35 35 32 39 39 29 23 16 19 10 13 13 16 16 19 19 19 13 13 10 16 6 3 3 3 0 0 0 0 0 0 0 0 0 0 0 3 0
10 6 10 19 19 23 23 23 23 26 19 10 16 13 10 13 10 16 13 13 19 13 10 13 13 10 3 3 0 3 0 0 0 0 0 0 0 0 0 0 0 0 0
3 3 6 6 13 16 16 26 19 19 23 16 16 6 10 10 6 6 10 10 13 19 16 13 10 6 3 0 3 0 0 0 0 0 0 0 0 0 0 0 0 0 0
3 3 3 3 6 6 10 19 16 13 16 16 10 6 3 3 3 3 6 6 13 13 13 6 13 6 6 0 0 0 0 0 0 0 0 0 0 0 0 0 0 0 0
3 3 3 3 6 6 6 6 10 10 6 6 6 6 3 3 3 3 3 3 3 6 6 10 10 3 3 0 0 0 0 0 0 0 0 0 0 0 0 0 0 0 0